Meteo Giornale » Osservazioni meteo Slovacchia » Dolny Hricov

ore: 11:30 - Osservazioni Meteo Dolny Hricov
Lat. 49° 14' N Lon. 18° 36' E Alt. 312 metri s.l.m.

poco_nuvoloso Europe/Bratislava

24 °C

Poco Nuvoloso

Temp. 24 Ore

16 °C

26 °C

Sud/Sud-Est

13 Km/h

Dew point 11 °C

Umidità 43 %

Visibilità  10 Km

Il sole sorge alle ore 05:19

Il sole tramonta alle ore 20:23

Data e Ora Cielo e Fenomeni T °C DP °C Um. % Pres. hPa Vis. km Vento km/h
Oggi h: 11:30 poco_nuvoloso Poco Nuvoloso 24 11 43 1010 10 S/SE 13
Oggi h: 11:00 poco_nuvoloso Poco Nuvoloso 24 12 47 1010 10 S 11.1
Oggi h: 10:30 poco_nuvoloso Poco Nuvoloso 24 13 50 1010 10 N 1.8
Oggi h: 10:00 sereno Sereno 22 14 60 1010 10 N 3.7
Oggi h: 09:30 sereno Sereno 21 15 68 1010 10 N 3.7
Oggi h: 09:00 sereno Sereno 21 15 68 1011 10 N 3.7
Oggi h: 08:30 sereno Sereno 19 15 77 1011 10 N 1.8
Oggi h: 08:00 sereno Sereno 18 14 77 1011 10 N 1.8
Oggi h: 07:30 sereno Sereno 17 14 82 1011 10 N 1.8
Oggi h: 07:00 sereno Sereno 17 14 82 1011 10 N 3.7
Oggi h: 06:30 sereno Sereno 17 14 82 1012 10 N 5.5
Oggi h: 06:00 sereno Sereno 16 14 87 1012 10 N 1.8
Oggi h: 05:00 sereno Sereno 16 14 87 1012 10 N 3.7
Oggi h: 04:30 sereno Sereno 16 14 87 1012 10 N 3.7
Oggi h: 04:00 sereno Sereno 16 14 87 1012 10 N 1.8
Oggi h: 03:30 sereno Sereno 16 14 87 1012 10 N 3.7
Oggi h: 03:00 sereno Sereno 16 14 87 1012 10 N 3.7
Oggi h: 02:30 sereno Sereno 16 14 87 1013 10 N 3.7
Oggi h: 02:00 sereno Sereno 16 14 87 1013 10 N 3.7
Oggi h: 01:30 sereno Sereno 16 15 93 1013 10 N 1.8
Oggi h: 01:00 sereno Sereno 17 14 82 1013 10 N 3.7
Oggi h: 00:30 sereno Sereno 17 15 88 1013 10 N 1.8
Oggi h: 00:00 sereno Sereno 17 14 82 1013 10 N 1.8
Ieri h: 23:30 sereno Sereno 17 15 88 1013 10 N 1.8
Ieri h: 23:00 sereno Sereno 18 14 77 1013 10 N 3.7
Ieri h: 22:30 sereno Sereno 18 14 77 1013 10 N 5.5
Ieri h: 22:00 sereno Sereno 18 15 82 1013 10 N 1.8
Ieri h: 21:30 sereno Sereno 19 15 77 1013 10 N 1.8
Ieri h: 21:00 sereno Sereno 19 15 77 1013 10 N 5.5
Ieri h: 20:30 sereno Sereno 21 15 68 1013 10 N 1.8
Ieri h: 20:00 sereno Sereno 22 15 64 1013 10 N 3.7
Ieri h: 19:30 sereno Sereno 23 15 60 1013 10 N 3.7
Ieri h: 19:00 sereno Sereno 23 14 56 1013 10 N 1.8
Ieri h: 18:30 sereno Sereno 24 14 53 1013 10 N 5.5
Ieri h: 18:00 sereno Sereno 24 14 53 1013 10 O 11.1
Ieri h: 17:30 sereno Sereno 25 13 47 1013 10 O/SO 14.8
Ieri h: 17:00 sereno Sereno 25 14 50 1013 10 O/SO 14.8
Ieri h: 16:30 sereno Sereno 26 15 50 1013 10 O/SO 11.1
Ieri h: 16:00 sereno Sereno 25 13 47 1013 10 O/SO 14.8
Ieri h: 15:30 sereno Sereno 25 14 50 1014 10 O/SO 14.8
Ieri h: 15:00 poco_nuvoloso Poco Nuvoloso 25 13 47 1014 10 O 16.7
Ieri h: 14:30 poco_nuvoloso Poco Nuvoloso 25 13 47 1014 10 O/SO 16.7
Ieri h: 14:00 poco_nuvoloso Poco Nuvoloso 26 13 44 1014 10 O 14.8
Ieri h: 13:30 poco_nuvoloso Poco Nuvoloso 25 13 47 1015 10 O 16.7
Ieri h: 13:00 poco_nuvoloso Poco Nuvoloso 25 13 47 1015 10 O 14.8